Temperature
11 11 11 11 11 11 11 11 11 11 11 11 11 11 11 11 11 11 11 11 10 10 10 10 10 9 9 9 9 9 9 9 9 9 9 9 10 10 9 9 9 9 9
10 10 10 10 10 10 10 11 11 11 11 11 11 11 10 10 10 10 10 10 10 10 10 9 9 9 9 9 9 9 9 9 9 9 9 9 9 9 9 9 9 9 9
9 10 10 10 10 10 10 10 10 10 10 10 10 10 10 10 10 10 10 10 10 10 10 9 9 9 9 9 9 9 9 8 9 9 9 9 9 9 9 8 8 8 8
9 9 9 9 9 9 9 9 9 10 10 10 10 10 10 10 10 10 9 9 9 9 9 9 9 9 9 9 8 8 8 8 8 8 8 8 8 8 8 8 8 8 8
8 8 8 8 9 9 9 9 9 9 9 9 9 9 9 9 9 9 9 9 9 9 9 9 8 8 8 8 8 8 8 8 8 8 8 8 8 8 8 8 8 7 7
7 8 8 8 8 8 8 8 8 8 8 8 9 9 9 9 9 9 9 8 8 8 8 8 8 8 8 8 8 8 7 7 8 8 8 7 7 7 7 7 7 7 7
7 7 7 7 7 7 8 8 8 8 8 8 8 8 8 8 8 8 8 8 8 8 8 8 7 7 7 7 8 8 7 7 7 7 7 7 7 7 6 6 6 7 7
6 6 6 7 7 7 7 7 7 7 7 7 6 6 6 7 7 7 7 7 7 7 7 7 7 7 7 7 7 7 7 7 7 7 7 7 6 6 6 6 6 6 6
6 6 6 6 6 6 6 6 6 6 6 6 6 5 6 6 6 6 7 7 7 7 7 7 7 7 7 7 7 7 7 7 7 7 6 6 6 6 6 6 6 6 6
5 5 5 6 6 6 6 6 5 5 5 5 5 5 5 5 5 5 6 6 6 6 6 6 6 6 6 6 6 6 6 6 6 6 6 6 6 6 5 5 5 5 5
5 5 5 5 5 5 5 5 5 5 5 4 4 4 4 4 4 4 4 5 6 6 6 6 6 6 6 6 6 6 6 6 6 6 6 5 5 5 5 5 5 5 5
4 4 5 5 5 5 5 5 5 4 4 4 4 4 4 4 4 4 4 4 5 5 5 5 5 5 5 5 5 5 5 5 5 5 5 5 5 5 5 5 5 5 4
4 4 4 4 4 4 4 4 4 4 4 4 4 4 4 4 4 4 3 4 4 4 4 5 5 5 4 4 4 4 4 4 4 4 4 5 4 4 4 4 4 4 4
3 3 3 4 4 4 4 4 3 3 3 3 3 3 3 3 3 3 3 3 3 3 3 3 4 4 4 4 4 4 4 4 4 4 4 4 4 4 4 4 4 4 4
3 3 3 3 3 3 3 3 3 3 3 3 3 3 3 3 3 3 3 3 2 2 2 3 3 3 3 3 3 3 3 3 3 3 3 3 3 4 4 3 3 3 3
2 2 2 2 2 2 2 2 2 2 2 3 3 3 3 3 3 3 3 2 2 2 2 2 2 2 3 3 3 3 3 3 3 3 3 3 3 3 3 3 3 3 3
1 1 2 2 2 2 2 2 2 2 2 2 2 2 2 2 2 2 2 2 2 2 2 2 2 2 2 2 2 2 2 3 3 3 2 2 2 2 2 3 2 2 2
1 1 1 1 1 1 1 1 1 1 2 2 2 2 2 2 2 2 2 2 2 2 1 1 1 1 2 2 2 2 2 2 2 2 2 2 2 2 2 2 2 2 2
0 0 0 0 1 1 1 1 1 1 1 1 1 1 1 1 1 1 1 1 1 1 1 1 1 1 1 1 1 1 1 2 2 2 2 2 2 2 2 2 1 1 1
-0 -0 -0 -0 0 0 0 0 0 0 0 0 0 0 0 1 1 1 1 1 1 1 1 0 0 0 1 0 0 0 1 1 1 1 1 1 1 1 1 1 1 1 1
-1 -1 -1 -1 -0 -0 -0 -0 -0 -0 -0 -0 -0 -0 -0 0 0 0 0 0 0 0 0 -0 -0 -0 -0 -0 -0 0 0 0 1 1 1 1 1 1 1 1 1 1 1
-1 -1 -1 -1 -1 -1 -1 -1 -1 -1 -1 -1 -1 -0 -0 -0 -0 -0 -0 -0 -0 -0 -0 -0 -1 -1 -0 -1 -0 -0 -0 -0 -0 -0 -0 0 0 0 1 0 0 0 0
-1 -1 -2 -2 -2 -1 -1 -1 -1 -2 -1 -1 -1 -1 -1 -1 -1 -1 -0 -0 -0 -0 -1 -1 -1 -1 -1 -1 -1 -1 -1 -1 -1 -1 -1 -0 0 0 0 0 -0 -0 -0
-2 -2 -2 -2 -2 -2 -2 -2 -2 -2 -2 -2 -1 -1 -1 -1 -1 -1 -1 -1 -1 -1 -1 -1 -1 -1 -1 -1 -1 -1 -1 -1 -1 -1 -1 -1 -1 -1 -0 -0 -0 -1 -0
-2 -2 -2 -2 -2 -2 -2 -2 -2 -2 -2 -2 -2 -2 -2 -1 -1 -1 -1 -1 -1 -1 -1 -1 -1 -1 -1 -2 -2 -2 -2 -2 -2 -2 -2 -2 -1 -1 -1 -0 -1 -1 -1
-3 -3 -3 -3 -3 -3 -3 -3 -3 -3 -2 -2 -2 -2 -2 -2 -2 -2 -2 -2 -2 -2 -2 -2 -2 -2 -2 -2 -2 -2 -2 -2 -2 -3 -2 -2 -2 -2 -2 -1 -1 -1 -1
Wind_Speed
2 2 3 2 2 2 2 2 2 2 1 1 1 1 1 1 1 1 2 2 3 4 4 5 5 5 5 5 6 5 5 5 5 6 6 6 6 6 7 7 7 7 7
2 1 2 2 2 1 1 1 1 1 1 1 1 2 2 2 1 1 2 2 3 4 5 5 6 6 7 7 7 7 7 6 6 7 7 7 7 7 7 8 8 8 8
1 1 1 1 2 2 1 1 1 1 1 1 2 2 2 2 2 2 2 2 3 4 5 5 6 7 8 8 7 7 7 8 7 7 7 7 8 8 8 8 9 9 10
2 1 1 1 2 2 1 0 0 1 1 2 2 3 2 2 3 3 2 2 3 3 4 5 6 7 8 9 8 8 8 8 8 8 8 8 9 9 9 9 9 10 11
3 2 1 2 2 1 1 1 1 1 2 2 3 3 2 2 2 2 2 2 3 3 3 5 6 7 8 9 9 9 9 9 9 9 9 9 10 10 10 11 11 11 12
4 2 2 2 1 1 1 1 2 1 2 2 2 3 3 3 2 2 2 2 2 3 4 4 5 6 7 8 9 10 10 10 10 10 10 11 11 11 11 12 12 12 13
3 2 2 2 1 1 2 2 2 1 2 1 1 2 2 2 2 2 2 2 2 2 3 3 4 5 5 7 9 10 11 11 12 12 12 12 11 12 12 12 13 13 13
3 2 2 2 2 2 2 2 1 1 1 1 0 0 2 2 2 2 2 2 2 1 2 3 4 4 5 5 7 9 11 12 13 13 13 13 13 13 13 13 13 13 13
4 3 3 2 2 2 2 2 2 3 2 2 1 1 1 3 2 2 2 2 2 2 3 3 4 5 6 6 6 8 10 12 13 14 14 14 14 14 13 13 12 12 12
4 4 3 3 3 3 3 3 2 3 3 3 2 2 2 2 2 2 2 2 3 3 4 4 4 5 6 6 7 8 9 10 12 14 15 15 14 14 13 12 12 12 12
4 4 4 3 3 3 3 3 3 3 3 4 3 2 2 2 3 3 4 3 3 3 4 4 4 4 6 6 7 8 9 10 11 12 14 14 14 14 13 13 13 12 12
3 4 4 4 4 3 4 4 4 4 4 5 4 4 3 3 3 3 4 4 4 4 4 4 4 4 5 6 7 9 10 10 11 12 13 13 13 13 13 13 13 13 13
4 4 4 4 4 4 4 3 4 4 5 5 5 4 4 5 3 3 4 4 5 4 3 3 3 3 4 5 7 9 9 10 10 10 11 11 11 12 12 13 13 13 12
5 5 4 4 4 4 4 3 4 4 4 5 5 5 4 4 4 4 4 4 4 4 3 4 2 3 4 5 7 8 7 9 9 10 10 10 10 10 11 11 12 12 12
5 5 4 4 4 4 4 3 3 4 4 4 4 4 4 4 4 4 4 4 4 6 6 4 3 3 4 4 7 7 6 9 10 10 10 10 9 10 10 10 10 10 11
5 5 5 4 4 3 3 3 3 4 4 4 3 4 4 4 3 4 4 4 5 6 7 3 3 4 4 5 7 7 7 9 9 9 9 9 9 9 9 9 9 10 10
4 5 5 4 4 4 3 3 3 4 4 4 4 4 5 4 4 4 4 4 5 5 7 5 3 3 3 4 5 5 6 6 6 8 8 8 8 8 8 8 9 9 9
4 5 4 4 4 4 3 3 4 4 4 4 4 4 5 4 4 4 4 5 5 5 5 6 4 3 4 4 4 4 5 5 5 6 8 8 7 7 8 8 9 8 9
4 4 4 4 4 4 4 4 4 4 4 5 5 5 5 4 5 4 4 5 4 4 4 4 5 3 3 3 3 4 4 4 5 6 7 7 7 7 8 8 8 7 7
4 4 4 4 5 4 4 4 4 4 5 5 5 5 5 5 6 5 5 5 4 3 3 4 4 3 3 2 2 3 4 3 4 4 5 5 6 7 8 8 6 6 6
5 4 4 4 4 4 4 4 4 5 5 5 5 5 5 6 7 6 5 4 3 3 3 4 4 4 3 2 2 3 4 4 4 3 3 4 4 4 5 7 6 5 6
4 4 4 4 4 4 6 7 5 5 4 5 5 5 5 5 6 7 7 6 5 4 4 4 4 5 4 3 3 3 3 3 3 2 3 5 3 3 4 4 5 6 5
4 4 4 4 5 5 7 6 6 4 4 4 4 4 4 3 4 3 4 5 5 6 6 5 5 6 5 4 3 3 3 3 4 3 3 5 3 4 4 5 7 6 5
4 4 4 4 4 5 6 6 5 3 4 4 4 3 4 4 3 3 2 2 3 3 4 4 4 5 4 4 4 4 4 3 3 3 2 3 3 3 4 5 6 5 5
4 4 4 4 4 5 6 5 4 2 3 3 3 3 3 4 4 3 2 2 3 3 4 4 4 4 4 4 2 1 1 2 3 3 1 1 2 3 3 3 4 6 6
3 3 3 3 3 4 5 5 5 2 2 3 3 3 4 5 4 3 2 2 3 3 3 2 2 3 3 3 3 2 2 2 2 2 1 1 1 2 2 2 2 4 5
Wind_Direction
37 28 22 26 29 34 35 21 18 13 3 354 352 336 302 296 279 285 282 256 237 241 252 259 263 266 268 269 266 268 266 262 269 271 272 273 274 275 279 283 286 284 286
50 28 9 10 6 359 1 5 347 343 313 314 312 301 276 266 249 248 261 266 264 255 255 261 267 270 271 273 270 266 264 265 269 270 270 270 274 275 278 280 280 281 284
17 8 346 347 341 339 345 360 2 359 325 319 297 296 284 263 249 248 248 251 263 268 260 262 268 271 271 271 271 268 264 264 267 268 269 270 274 276 280 279 277 278 281
342 353 312 299 338 357 1 283 252 269 288 294 293 288 290 273 249 244 241 246 252 260 264 263 265 269 273 272 271 268 264 264 265 266 267 268 271 273 276 278 280 279 279
338 338 306 310 341 354 336 278 256 235 265 279 276 277 278 267 249 243 235 240 245 245 254 267 271 272 273 271 268 269 268 263 262 264 266 269 269 270 274 276 277 279 280
336 331 310 313 326 273 288 284 266 260 246 261 277 281 280 268 241 231 238 242 246 249 259 263 268 270 271 271 270 271 270 268 266 264 264 266 268 269 271 274 276 278 280
337 332 304 298 293 257 253 255 256 263 262 262 286 297 290 268 242 240 242 238 252 262 271 269 266 267 271 273 272 273 272 272 270 268 265 265 267 270 272 275 277 279 280
319 314 292 276 270 260 265 250 230 242 269 256 178 341 311 303 283 266 263 247 258 288 288 280 268 267 269 270 277 278 276 276 275 273 269 267 268 269 271 273 276 280 281
310 300 291 274 267 242 248 251 235 217 241 258 209 178 200 248 286 274 250 249 267 282 287 292 290 283 276 269 272 279 279 279 279 279 276 273 272 272 271 273 275 278 280
300 296 288 273 257 248 247 249 243 235 225 246 257 231 218 202 217 273 273 261 267 269 268 288 286 287 287 279 272 277 280 283 283 281 279 277 276 274 274 276 276 276 278
300 294 283 269 258 250 246 245 243 237 227 231 236 236 231 237 225 228 268 279 282 262 263 266 272 280 284 283 279 276 282 285 284 284 284 282 279 277 278 279 278 275 276
293 293 287 274 263 255 248 244 241 241 234 232 233 227 223 227 221 221 248 274 281 280 280 269 261 266 275 280 280 287 288 287 287 286 287 287 286 285 284 284 281 279 277
290 284 287 276 269 265 262 249 246 249 239 234 234 234 232 238 239 237 246 267 280 286 274 273 264 270 281 285 281 287 286 290 289 289 289 290 291 290 289 288 286 283 281
275 279 279 277 278 274 270 256 249 249 244 238 241 237 240 243 237 239 238 247 279 283 270 269 282 266 276 286 287 290 290 290 289 289 289 289 290 291 290 289 287 283 282
276 273 273 274 275 275 266 257 257 258 254 246 244 243 244 246 241 244 241 235 243 273 280 259 265 273 280 285 292 298 295 292 294 294 289 289 290 291 290 287 286 285 284
279 276 276 272 273 269 260 253 261 258 256 255 245 242 249 251 249 247 242 241 238 248 269 265 258 273 286 285 295 303 296 299 296 294 293 292 290 288 290 290 288 284 285
279 277 274 272 271 270 263 259 261 260 254 254 249 243 250 248 252 255 247 242 241 240 261 279 269 281 283 288 307 308 302 298 295 294 295 293 290 291 289 292 289 284 283
279 277 275 272 270 270 261 254 262 261 254 256 259 255 258 256 255 258 254 247 243 236 243 269 284 286 285 288 295 296 303 302 298 294 298 296 293 295 295 294 293 285 282
280 280 277 270 268 265 260 256 251 256 259 257 255 254 258 255 257 259 259 253 248 247 242 256 278 285 288 298 306 303 304 306 308 303 303 299 300 302 301 296 295 293 290
275 277 273 270 266 262 260 262 258 256 261 263 256 253 254 248 248 251 253 248 250 248 246 255 270 281 287 295 294 300 309 311 306 309 310 306 311 310 307 300 293 294 294
278 276 278 278 272 263 260 260 259 257 258 264 265 261 256 258 255 255 257 248 241 242 250 256 264 278 282 302 290 288 291 305 303 299 312 314 315 317 317 307 298 294 296
280 278 276 275 275 274 272 263 261 258 260 259 264 270 271 266 267 270 265 262 252 242 243 249 261 264 268 272 276 276 288 301 302 311 313 308 318 306 311 312 309 307 305
282 280 278 276 271 273 279 270 266 261 258 257 260 268 280 283 290 275 278 282 279 277 267 255 254 257 260 255 257 268 268 279 278 285 304 299 309 300 312 312 315 314 313
277 276 275 273 275 279 288 284 282 266 259 260 257 255 262 272 272 269 272 274 273 284 283 268 252 260 263 249 236 242 255 278 287 294 288 281 300 301 315 321 319 324 330
276 275 275 270 272 284 293 291 293 275 266 269 266 261 264 259 267 278 272 270 294 300 301 288 285 289 293 290 277 240 262 289 299 301 293 267 292 307 311 313 332 335 335
281 285 285 278 271 277 291 298 300 274 272 279 280 273 273 272 269 272 249 244 266 282 302 320 321 317 311 311 309 272 229 249 286 292 262 260 294 328 319 313 338 340 336
Height
1508 1508 1508 1508 1509 1509 1509 1509 1510 1510 1511 1511 1512 1512 1512 1513 1513 1514 1514 1515 1516 1516 1516 1517 1517 1517 1517 1517 1517 1517 1516 1516 1516 1515 1515 1514 1514 1514 1514 1514 1514 1514 1514
1505 1505 1505 1505 1506 1506 1506 1507 1507 1507 1508 1508 1508 1509 1509 1510 1510 1511 1511 1512 1513 1513 1513 1514 1514 1514 1514 1514 1514 1513 1513 1513 1513 1512 1512 1512 1511 1511 1511 1511 1511 1511 1510
1503 1502 1502 1503 1503 1503 1503 1504 1504 1504 1504 1505 1505 1505 1506 1506 1507 1507 1508 1509 1509 1510 1510 1510 1510 1511 1511 1511 1510 1510 1510 1510 1509 1509 1509 1508 1508 1508 1508 1507 1507 1507 1507
1499 1499 1499 1499 1500 1500 1500 1500 1500 1501 1501 1501 1501 1502 1502 1502 1503 1504 1504 1505 1506 1506 1507 1507 1507 1507 1507 1507 1507 1506 1506 1506 1506 1506 1505 1505 1505 1504 1504 1504 1504 1503 1503
1496 1496 1496 1496 1496 1497 1497 1497 1497 1497 1497 1497 1497 1498 1498 1499 1499 1500 1500 1501 1502 1502 1503 1503 1503 1503 1503 1503 1503 1503 1502 1502 1502 1502 1502 1501 1501 1501 1500 1500 1500 1499 1499
1493 1493 1493 1493 1493 1493 1493 1493 1493 1494 1494 1494 1494 1494 1495 1494 1495 1496 1497 1497 1498 1498 1498 1498 1498 1498 1499 1499 1498 1498 1498 1498 1498 1498 1497 1497 1497 1496 1496 1496 1495 1495 1494
1490 1490 1490 1489 1489 1489 1489 1490 1489 1490 1490 1490 1490 1490 1490 1491 1491 1491 1492 1493 1493 1494 1494 1494 1494 1494 1494 1494 1494 1493 1493 1493 1493 1493 1493 1493 1492 1492 1491 1491 1490 1490 1489
1487 1487 1486 1486 1486 1486 1486 1486 1486 1486 1486 1487 1487 1486 1486 1487 1486 1487 1488 1489 1489 1489 1489 1489 1490 1489 1489 1489 1489 1489 1489 1489 1488 1488 1488 1487 1487 1487 1486 1486 1485 1485 1484
1484 1484 1483 1483 1482 1482 1482 1482 1483 1482 1483 1483 1484 1485 1485 1483 1482 1483 1484 1485 1485 1485 1485 1485 1485 1485 1484 1484 1484 1484 1484 1484 1483 1483 1483 1482 1482 1481 1481 1481 1480 1479 1479
1480 1480 1480 1480 1479 1479 1479 1479 1479 1480 1480 1480 1480 1481 1482 1482 1481 1479 1479 1480 1481 1481 1481 1480 1480 1480 1479 1479 1479 1479 1479 1478 1478 1478 1477 1477 1476 1476 1476 1475 1475 1474 1473
1477 1476 1476 1476 1475 1475 1475 1475 1475 1476 1476 1476 1477 1477 1477 1478 1478 1477 1475 1474 1475 1476 1476 1476 1475 1475 1475 1474 1473 1473 1473 1473 1472 1472 1472 1471 1471 1470 1470 1470 1469 1469 1468
1472 1472 1472 1472 1471 1471 1471 1471 1471 1472 1472 1472 1473 1473 1473 1474 1473 1473 1472 1470 1470 1470 1470 1470 1470 1470 1470 1469 1468 1468 1467 1467 1466 1466 1465 1465 1465 1464 1464 1464 1463 1463 1463
1467 1467 1467 1467 1467 1466 1466 1467 1467 1467 1467 1467 1468 1468 1469 1469 1470 1470 1469 1467 1466 1464 1464 1465 1465 1465 1465 1464 1463 1463 1462 1461 1460 1460 1459 1459 1459 1459 1458 1458 1457 1457 1456
1463 1463 1462 1462 1462 1462 1462 1462 1462 1462 1463 1463 1463 1463 1464 1465 1465 1465 1465 1465 1462 1460 1459 1459 1459 1460 1459 1459 1458 1457 1456 1455 1454 1454 1454 1453 1453 1453 1452 1451 1451 1451 1450
1458 1458 1458 1457 1457 1457 1458 1458 1457 1458 1458 1458 1458 1459 1459 1459 1460 1460 1460 1460 1460 1457 1454 1454 1454 1455 1455 1454 1453 1452 1450 1450 1449 1448 1448 1448 1447 1447 1446 1446 1445 1444 1444
1454 1453 1453 1453 1453 1453 1453 1453 1453 1453 1453 1453 1453 1453 1454 1454 1454 1454 1455 1455 1455 1454 1451 1449 1450 1450 1449 1449 1448 1447 1446 1445 1444 1443 1443 1442 1441 1441 1440 1440 1439 1438 1438
1449 1448 1448 1448 1448 1448 1448 1448 1448 1448 1449 1448 1448 1448 1448 1449 1449 1449 1449 1449 1449 1449 1446 1444 1446 1445 1444 1444 1443 1442 1441 1440 1438 1438 1437 1436 1436 1435 1434 1433 1433 1432 1432
1444 1444 1443 1443 1443 1443 1443 1444 1444 1444 1443 1443 1443 1443 1443 1444 1444 1444 1444 1444 1444 1443 1443 1440 1440 1440 1439 1439 1438 1437 1436 1435 1433 1433 1432 1431 1430 1429 1429 1428 1427 1426 1426
1439 1439 1439 1438 1438 1439 1439 1439 1439 1438 1438 1438 1438 1438 1438 1438 1438 1439 1439 1439 1439 1438 1438 1436 1435 1435 1434 1434 1433 1432 1431 1430 1429 1428 1427 1426 1425 1424 1423 1423 1422 1421 1421
1435 1434 1434 1434 1434 1435 1435 1435 1434 1434 1434 1433 1434 1433 1433 1434 1434 1434 1434 1434 1434 1433 1433 1432 1430 1429 1429 1429 1429 1427 1426 1425 1424 1423 1422 1421 1420 1419 1418 1418 1417 1416 1415
1431 1431 1430 1430 1430 1430 1430 1430 1430 1430 1429 1429 1429 1429 1429 1429 1429 1429 1429 1429 1429 1428 1428 1427 1426 1425 1424 1424 1424 1423 1422 1421 1420 1419 1417 1417 1416 1414 1414 1413 1412 1411 1411
1427 1427 1427 1426 1426 1426 1426 1426 1426 1426 1425 1425 1425 1425 1425 1425 1424 1425 1425 1425 1425 1424 1423 1422 1421 1420 1419 1420 1420 1419 1418 1417 1415 1416 1414 1413 1412 1410 1410 1409 1408 1408 1407
1424 1423 1423 1423 1422 1422 1422 1422 1422 1422 1421 1421 1421 1421 1420 1420 1420 1420 1420 1420 1420 1420 1420 1419 1417 1416 1416 1416 1415 1415 1414 1413 1412 1412 1411 1409 1409 1407 1406 1405 1404 1404 1404
1420 1420 1419 1419 1419 1419 1418 1418 1418 1418 1417 1417 1417 1417 1417 1416 1417 1416 1416 1416 1416 1415 1415 1414 1414 1413 1413 1412 1412 1411 1410 1409 1409 1409 1408 1406 1404 1404 1403 1402 1401 1401 1400
1417 1417 1416 1416 1415 1415 1415 1415 1415 1414 1414 1413 1414 1413 1413 1413 1413 1413 1413 1412 1411 1411 1411 1410 1410 1409 1409 1408 1408 1407 1406 1405 1404 1404 1405 1403 1401 1400 1399 1398 1398 1397 1397
1414 1413 1413 1412 1412 1412 1412 1412 1411 1411 1410 1410 1410 1410 1410 1410 1409 1409 1409 1408 1407 1406 1406 1406 1405 1405 1405 1404 1404 1404 1403 1402 1401 1401 1401 1401 1399 1399 1397 1395 1395 1395 1394